Terug naar catalogus

BREEZE-M R/B

ActiefHEO
NORAD 33375·ROCKET BODY·🇷🇺 Russia

Gelanceerd Sep 19, 2008 vanaf Baikonur Cosmodrome

Loading…

Volgende Passages (komende 24 uur)

TLE

VersSource: Space-Track

Epoch: Sep 14, 2026, 08:48 UTC

1 33375U 08044C   26257.36666917 -.00000221  00000-0  00000-0 0  9999
2 33375  12.4176 297.9585 5992605 348.5960   2.4311  2.03679530133834

Volg BREEZE-M R/B in realtime met AllMySat

Download on the App Store